Time,TemperatureF,DewpointF,PressureIn,WindDirection,WindDirectionDegrees,WindSpeedMPH,WindSpeedGustMPH,Humidity,HourlyPrecipIn,Conditions,Clouds,dailyrainin,SoftwareType,DateUTC
2013-05-01 00:01:00,56.9,53.1,30.10,NNE,16,0.0,0.0,87,0.00,,---,0.00,VWS V14.01,2013-05-01 04:01:00,
2013-05-01 00:06:00,56.8,53.0,30.10,NNE,16,0.0,0.0,87,0.00,,---,0.00,VWS V14.01,2013-05-01 04:06:00,
2013-05-01 00:11:00,56.7,52.9,30.11,NNE,15,0.0,0.0,87,0.00,,---,0.00,VWS V14.01,2013-05-01 04:11:00,
2013-05-01 00:16:00,56.7,53.2,30.11,NNE,15,1.0,1.0,88,0.00,,---,0.00,VWS V14.01,2013-05-01 04:16:00,
2013-05-01 00:21:00,56.6,53.1,30.11,NNE,15,0.0,0.0,88,0.00,,---,0.00,VWS V14.01,2013-05-01 04:21:00,
2013-05-01 00:26:00,56.5,53.0,30.11,NNE,18,0.0,1.0,88,0.00,,---,0.00,VWS V14.01,2013-05-01 04:26:00,
2013-05-01 00:31:00,56.3,53.1,30.11,NNE,15,0.0,0.0,89,0.00,,---,0.00,VWS V14.01,2013-05-01 04:31:00,
2013-05-01 00:36:00,56.2,53.0,30.11,NNE,16,0.0,0.0,89,0.00,,---,0.00,VWS V14.01,2013-05-01 04:36:00,
2013-05-01 00:41:00,56.1,52.9,30.11,NNE,16,1.0,1.0,89,0.00,,---,0.00,VWS V14.01,2013-05-01 04:41:00,
2013-05-01 00:46:00,56.0,52.8,30.11,NNE,15,0.0,0.0,89,0.00,,---,0.00,VWS V14.01,2013-05-01 04:46:00,
2013-05-01 00:51:00,55.9,52.7,30.11,NNE,15,0.0,1.0,89,0.00,,---,0.00,VWS V14.01,2013-05-01 04:51:00,
2013-05-01 00:56:00,55.7,52.8,30.12,NNE,15,0.0,0.0,90,0.00,,---,0.00,VWS V14.01,2013-05-01 04:56:00,
2013-05-01 01:01:00,55.6,52.7,30.12,NNE,15,1.0,1.0,90,0.00,,---,0.00,VWS V14.01,2013-05-01 05:01:00,
2013-05-01 01:06:00,55.5,52.6,30.12,NNE,15,0.0,0.0,90,0.00,,---,0.00,VWS V14.01,2013-05-01 05:06:00,
2013-05-01 01:11:00,55.4,52.5,30.12,NNE,15,1.0,1.0,90,0.00,,---,0.00,VWS V14.01,2013-05-01 05:11:00,
2013-05-01 01:16:00,55.3,52.4,30.12,NNE,15,0.0,0.0,90,0.00,,---,0.00,VWS V14.01,2013-05-01 05:16:00,
2013-05-01 01:21:00,55.2,52.3,30.12,NNE,15,1.0,1.0,90,0.00,,---,0.00,VWS V14.01,2013-05-01 05:21:00,
2013-05-01 01:26:00,55.1,52.2,30.12,NNE,18,0.0,0.0,90,0.00,,---,0.00,VWS V14.01,2013-05-01 05:26:00,
2013-05-01 01:31:00,55.0,52.1,30.12,NNE,29,0.0,1.0,90,0.00,,---,0.00,VWS V14.01,2013-05-01 05:31:00,
2013-05-01 01:36:00,55.0,52.1,30.12,NNE,29,0.0,0.0,90,0.00,,---,0.00,VWS V14.01,2013-05-01 05:36:00,
2013-05-01 01:41:00,54.9,52.0,30.12,NNE,29,0.0,0.0,90,0.00,,---,0.00,VWS V14.01,2013-05-01 05:41:00,
2013-05-01 01:46:00,54.7,52.1,30.12,NNE,29,1.0,1.0,91,0.00,,---,0.00,VWS V14.01,2013-05-01 05:46:00,
2013-05-01 01:52:00,54.6,52.0,30.11,NNE,26,0.0,0.0,91,0.00,,---,0.00,VWS V14.01,2013-05-01 05:52:00,
2013-05-01 01:57:00,54.5,51.9,30.11,NNE,26,0.0,0.0,91,0.00,,---,0.00,VWS V14.01,2013-05-01 05:57:00,
2013-05-01 02:02:00,54.3,51.7,30.11,NNE,26,0.0,0.0,91,0.00,,---,0.00,VWS V14.01,2013-05-01 06:02:00,
2013-05-01 02:07:00,54.1,51.5,30.11,NNE,26,0.0,0.0,91,0.00,,---,0.00,VWS V14.01,2013-05-01 06:07:00,
2013-05-01 02:12:00,54.0,51.4,30.11,NNE,26,0.0,0.0,91,0.00,,---,0.00,VWS V14.01,2013-05-01 06:12:00,
2013-05-01 02:17:00,53.9,51.6,30.11,NNE,25,0.0,0.0,92,0.00,,---,0.00,VWS V14.01,2013-05-01 06:17:00,
2013-05-01 02:22:00,53.8,51.5,30.11,NNE,25,1.0,1.0,92,0.00,,---,0.00,VWS V14.01,2013-05-01 06:22:00,
2013-05-01 02:27:00,53.7,51.4,30.11,NW,322,1.0,1.0,92,0.00,,---,0.00,VWS V14.01,2013-05-01 06:27:00,
2013-05-01 02:32:00,53.7,51.7,30.11,NNW,333,0.0,0.0,93,0.00,,---,0.00,VWS V14.01,2013-05-01 06:32:00,
2013-05-01 02:37:00,53.6,51.3,30.12,NNW,333,0.0,0.0,92,0.00,,---,0.00,VWS V14.01,2013-05-01 06:37:00,
2013-05-01 02:42:00,53.5,51.2,30.12,NW,322,0.0,0.0,92,0.00,,---,0.00,VWS V14.01,2013-05-01 06:42:00,
2013-05-01 02:47:00,53.4,51.4,30.12,NW,322,0.0,0.0,93,0.00,,---,0.00,VWS V14.01,2013-05-01 06:47:00,
2013-05-01 02:52:00,53.4,51.4,30.12,NW,322,0.0,0.0,93,0.00,,---,0.00,VWS V14.01,2013-05-01 06:52:00,
2013-05-01 02:57:00,53.4,51.4,30.12,NW,322,0.0,0.0,93,0.00,,---,0.00,VWS V14.01,2013-05-01 06:57:00,
2013-05-01 03:02:00,53.4,51.4,30.12,NW,321,0.0,0.0,93,0.00,,---,0.00,VWS V14.01,2013-05-01 07:02:00,
2013-05-01 03:07:00,53.4,51.4,30.12,NNW,334,1.0,1.0,93,0.00,,---,0.00,VWS V14.01,2013-05-01 07:07:00,
2013-05-01 03:12:00,53.4,51.1,30.12,NNE,12,1.0,2.0,92,0.00,,---,0.00,VWS V14.01,2013-05-01 07:12:00,
2013-05-01 03:17:00,53.5,51.2,30.12,NNE,12,0.0,0.0,92,0.00,,---,0.00,VWS V14.01,2013-05-01 07:17:00,
2013-05-01 03:24:00,53.4,51.1,30.12,NNE,12,0.0,0.0,92,0.00,,---,0.00,VWS V14.01,2013-05-01 07:24:00,
2013-05-01 03:29:00,53.3,51.0,30.12,North,11,0.0,0.0,92,0.00,,---,0.00,VWS V14.01,2013-05-01 07:29:00,
2013-05-01 03:34:00,53.1,50.8,30.12,North,11,0.0,0.0,92,0.00,,---,0.00,VWS V14.01,2013-05-01 07:34:00,
2013-05-01 03:39:00,53.0,50.7,30.12,North,11,0.0,0.0,92,0.00,,---,0.00,VWS V14.01,2013-05-01 07:39:00,
2013-05-01 03:44:00,53.0,50.7,30.11,North,11,0.0,0.0,92,0.00,,---,0.00,VWS V14.01,2013-05-01 07:44:00,
2013-05-01 03:49:00,52.9,50.6,30.11,North,11,0.0,0.0,92,0.00,,---,0.00,VWS V14.01,2013-05-01 07:49:00,
2013-05-01 03:54:00,52.8,50.8,30.11,North,11,0.0,0.0,93,0.00,,---,0.00,VWS V14.01,2013-05-01 07:54:00,
2013-05-01 03:59:00,52.7,50.7,30.11,North,11,0.0,0.0,93,0.00,,---,0.00,VWS V14.01,2013-05-01 07:59:00,
2013-05-01 04:04:00,52.6,50.6,30.11,North,11,0.0,0.0,93,0.00,,---,0.00,VWS V14.01,2013-05-01 08:04:00,
2013-05-01 04:09:00,52.6,50.6,30.11,NNE,13,1.0,1.0,93,0.00,,---,0.00,VWS V14.01,2013-05-01 08:09:00,
2013-05-01 04:14:00,52.6,50.6,30.11,NNE,13,0.0,0.0,93,0.00,,---,0.00,VWS V14.01,2013-05-01 08:14:00,
2013-05-01 04:19:00,52.5,50.2,30.11,NNE,13,0.0,0.0,92,0.00,,---,0.00,VWS V14.01,2013-05-01 08:19:00,
2013-05-01 04:24:00,52.5,50.2,30.11,NNE,13,0.0,0.0,92,0.00,,---,0.00,VWS V14.01,2013-05-01 08:24:00,
2013-05-01 04:29:00,52.4,50.2,30.11,NNE,13,0.0,0.0,92,0.00,,---,0.00,VWS V14.01,2013-05-01 08:29:00,
2013-05-01 04:34:00,52.3,50.0,30.11,North,8,0.0,0.0,92,0.00,,---,0.00,VWS V14.01,2013-05-01 08:34:00,
2013-05-01 04:39:00,52.1,49.8,30.11,North,9,0.0,0.0,92,0.00,,---,0.00,VWS V14.01,2013-05-01 08:39:00,
2013-05-01 04:44:00,51.9,49.9,30.11,North,9,0.0,0.0,93,0.00,,---,0.00,VWS V14.01,2013-05-01 08:44:00,
2013-05-01 04:50:00,51.8,49.8,30.11,North,9,0.0,0.0,93,0.00,,---,0.00,VWS V14.01,2013-05-01 08:50:00,
2013-05-01 04:55:00,51.7,49.8,30.11,North,9,0.0,0.0,93,0.00,,---,0.00,VWS V14.01,2013-05-01 08:55:00,
2013-05-01 05:00:00,51.6,49.7,30.11,North,8,0.0,1.0,93,0.00,,---,0.00,VWS V14.01,2013-05-01 09:00:00,
2013-05-01 05:05:00,51.6,49.7,30.11,North,9,0.0,0.0,93,0.00,,---,0.00,VWS V14.01,2013-05-01 09:05:00,
2013-05-01 05:10:00,51.5,49.5,30.11,North,9,0.0,0.0,93,0.00,,---,0.00,VWS V14.01,2013-05-01 09:10:00,
2013-05-01 05:15:00,51.4,49.5,30.11,North,8,0.0,0.0,93,0.00,,---,0.00,VWS V14.01,2013-05-01 09:15:00,
2013-05-01 05:20:00,51.3,49.3,30.11,North,8,0.0,0.0,93,0.00,,---,0.00,VWS V14.01,2013-05-01 09:20:00,
2013-05-01 05:25:00,51.2,49.2,30.10,North,9,0.0,0.0,93,0.00,,---,0.00,VWS V14.01,2013-05-01 09:25:00,
2013-05-01 05:30:00,51.1,49.2,30.10,North,9,0.0,0.0,93,0.00,,---,0.00,VWS V14.01,2013-05-01 09:30:00,
2013-05-01 05:35:00,51.0,49.0,30.10,North,9,0.0,0.0,93,0.00,,---,0.00,VWS V14.01,2013-05-01 09:35:00,
2013-05-01 05:40:00,50.8,48.8,30.10,North,8,0.0,0.0,93,0.00,,---,0.00,VWS V14.01,2013-05-01 09:40:00,
2013-05-01 05:45:00,50.7,49.0,30.10,North,9,0.0,0.0,94,0.00,,---,0.00,VWS V14.01,2013-05-01 09:45:00,
2013-05-01 05:50:00,50.6,48.9,30.10,North,8,0.0,0.0,94,0.00,,---,0.00,VWS V14.01,2013-05-01 09:50:00,
2013-05-01 05:55:00,50.6,48.9,30.11,North,9,0.0,0.0,94,0.00,,---,0.00,VWS V14.01,2013-05-01 09:55:00,
2013-05-01 06:00:00,50.6,48.9,30.11,North,9,0.0,0.0,94,0.00,,---,0.00,VWS V14.01,2013-05-01 10:00:00,
2013-05-01 06:05:00,50.6,48.9,30.11,North,9,0.0,0.0,94,0.00,,---,0.00,VWS V14.01,2013-05-01 10:05:00,
2013-05-01 06:10:00,50.6,48.9,30.11,North,8,0.0,0.0,94,0.00,,---,0.00,VWS V14.01,2013-05-01 10:10:00,
2013-05-01 06:15:00,50.6,48.9,30.12,North,9,0.0,0.0,94,0.00,,---,0.00,VWS V14.01,2013-05-01 10:15:00,
2013-05-01 06:20:00,50.6,48.9,30.12,North,9,0.0,0.0,94,0.00,,---,0.00,VWS V14.01,2013-05-01 10:20:00,
2013-05-01 06:25:00,50.6,48.9,30.12,North,8,0.0,0.0,94,0.00,,---,0.00,VWS V14.01,2013-05-01 10:25:00,
2013-05-01 06:30:00,50.6,48.9,30.13,North,9,0.0,0.0,94,0.00,,---,0.00,VWS V14.01,2013-05-01 10:30:00,
2013-05-01 06:35:00,50.7,49.3,30.13,North,9,0.0,0.0,95,0.00,,---,0.00,VWS V14.01,2013-05-01 10:35:00,
2013-05-01 06:40:00,50.7,49.3,30.14,North,9,0.0,0.0,95,0.00,,---,0.00,VWS V14.01,2013-05-01 10:40:00,
2013-05-01 06:45:00,50.8,49.4,30.14,North,9,0.0,0.0,95,0.00,,---,0.00,VWS V14.01,2013-05-01 10:45:00,
2013-05-01 06:50:00,50.9,49.5,30.14,North,8,0.0,0.0,95,0.00,,---,0.00,VWS V14.01,2013-05-01 10:50:00,
2013-05-01 06:55:00,51.0,49.6,30.14,North,9,0.0,0.0,95,0.00,,---,0.00,VWS V14.01,2013-05-01 10:55:00,
2013-05-01 07:00:00,51.0,49.6,30.14,North,9,0.0,0.0,95,0.00,,---,0.00,VWS V14.01,2013-05-01 11:00:00,
2013-05-01 07:05:00,51.1,49.7,30.14,North,9,0.0,0.0,95,0.00,,---,0.00,VWS V14.01,2013-05-01 11:05:00,
2013-05-01 07:10:00,51.0,49.3,30.14,North,9,0.0,0.0,94,0.00,,---,0.00,VWS V14.01,2013-05-01 11:10:00,
2013-05-01 07:15:00,50.9,49.2,30.14,North,9,0.0,0.0,94,0.00,,---,0.00,VWS V14.01,2013-05-01 11:15:00,
2013-05-01 07:20:00,51.0,49.6,30.14,North,9,0.0,0.0,95,0.00,,---,0.00,VWS V14.01,2013-05-01 11:20:00,
2013-05-01 07:25:00,51.0,49.6,30.15,North,8,0.0,0.0,95,0.00,,---,0.00,VWS V14.01,2013-05-01 11:25:00,
2013-05-01 07:30:00,51.0,49.6,30.15,North,9,0.0,0.0,95,0.00,,---,0.00,VWS V14.01,2013-05-01 11:30:00,
2013-05-01 07:35:00,51.1,49.7,30.15,North,8,0.0,0.0,95,0.00,,---,0.00,VWS V14.01,2013-05-01 11:35:00,
2013-05-01 07:40:00,51.2,49.8,30.15,North,9,0.0,0.0,95,0.00,,---,0.00,VWS V14.01,2013-05-01 11:40:00,
2013-05-01 07:45:00,51.4,50.0,30.15,North,8,0.0,0.0,95,0.00,,---,0.00,VWS V14.01,2013-05-01 11:45:00,
2013-05-01 07:50:00,51.6,50.2,30.15,North,8,0.0,0.0,95,0.00,,---,0.00,VWS V14.01,2013-05-01 11:50:00,
2013-05-01 07:55:00,51.8,50.4,30.15,North,8,0.0,0.0,95,0.00,,---,0.00,VWS V14.01,2013-05-01 11:55:00,
2013-05-01 08:00:00,52.2,50.8,30.15,North,9,0.0,0.0,95,0.00,,---,0.00,VWS V14.01,2013-05-01 12:00:00,
2013-05-01 08:05:00,52.5,50.8,30.15,North,9,0.0,0.0,94,0.00,,---,0.00,VWS V14.01,2013-05-01 12:05:00,
2013-05-01 08:10:00,52.8,50.5,30.16,North,9,0.0,0.0,92,0.00,,---,0.00,VWS V14.01,2013-05-01 12:10:00,
2013-05-01 08:15:00,53.1,50.5,30.16,North,8,0.0,0.0,91,0.00,,---,0.00,VWS V14.01,2013-05-01 12:15:00,
2013-05-01 08:20:00,53.5,50.9,30.16,NNW,343,0.0,0.0,91,0.00,,---,0.00,VWS V14.01,2013-05-01 12:20:00,
2013-05-01 08:25:00,53.7,50.8,30.16,NNW,343,0.0,0.0,90,0.00,,---,0.00,VWS V14.01,2013-05-01 12:25:00,
2013-05-01 08:30:00,54.0,51.1,30.16,NNW,343,0.0,0.0,90,0.00,,---,0.00,VWS V14.01,2013-05-01 12:30:00,
2013-05-01 08:35:00,54.2,51.3,30.16,NNW,342,0.0,0.0,90,0.00,,---,0.00,VWS V14.01,2013-05-01 12:35:00,
2013-05-01 08:40:00,54.4,50.9,30.17,SW,231,0.0,0.0,88,0.00,,---,0.00,VWS V14.01,2013-05-01 12:40:00,
2013-05-01 08:45:00,54.5,51.0,30.17,SW,231,0.0,1.0,88,0.00,,---,0.00,VWS V14.01,2013-05-01 12:45:00,
2013-05-01 08:50:00,54.6,51.1,30.17,WSW,249,0.0,0.0,88,0.00,,---,0.00,VWS V14.01,2013-05-01 12:50:00,
2013-05-01 08:55:00,54.7,50.9,30.17,WSW,249,0.0,0.0,87,0.00,,---,0.00,VWS V14.01,2013-05-01 12:55:00,
2013-05-01 09:00:00,54.7,51.2,30.17,West,281,0.0,1.0,88,0.00,,---,0.00,VWS V14.01,2013-05-01 13:00:00,
2013-05-01 09:05:00,54.7,50.9,30.17,West,281,0.0,0.0,87,0.00,,---,0.00,VWS V14.01,2013-05-01 13:05:00,
2013-05-01 09:10:00,54.8,51.0,30.17,West,263,0.0,1.0,87,0.00,,---,0.00,VWS V14.01,2013-05-01 13:10:00,
2013-05-01 09:15:00,54.9,50.8,30.17,West,263,0.0,1.0,86,0.00,,---,0.00,VWS V14.01,2013-05-01 13:15:00,
2013-05-01 09:20:00,55.1,51.0,30.17,WNW,297,0.0,1.0,86,0.00,,---,0.00,VWS V14.01,2013-05-01 13:20:00,
2013-05-01 09:25:00,55.4,51.0,30.17,WNW,298,0.0,0.0,85,0.00,,---,0.00,VWS V14.01,2013-05-01 13:25:00,
2013-05-01 09:30:00,55.5,51.1,30.17,NW,315,0.0,0.0,85,0.00,,---,0.00,VWS V14.01,2013-05-01 13:30:00,
2013-05-01 09:35:00,55.6,50.8,30.18,WNW,283,0.0,1.0,84,0.00,,---,0.00,VWS V14.01,2013-05-01 13:35:00,
2013-05-01 09:40:00,55.8,51.4,30.18,NW,318,0.0,0.0,85,0.00,,---,0.00,VWS V14.01,2013-05-01 13:40:00,
2013-05-01 09:45:00,56.0,51.6,30.18,NW,314,0.0,0.0,85,0.00,,---,0.00,VWS V14.01,2013-05-01 13:45:00,
2013-05-01 09:50:00,56.4,52.0,30.18,WSW,252,0.0,1.0,85,0.00,,---,0.00,VWS V14.01,2013-05-01 13:50:00,
2013-05-01 09:55:00,56.7,52.2,30.18,West,271,0.0,0.0,85,0.00,,---,0.00,VWS V14.01,2013-05-01 13:55:00,
2013-05-01 10:00:00,57.1,52.0,30.18,West,264,1.0,3.0,83,0.00,,---,0.00,VWS V14.01,2013-05-01 14:00:00,
2013-05-01 10:05:00,57.1,51.3,30.18,WNW,297,0.0,1.0,81,0.00,,---,0.00,VWS V14.01,2013-05-01 14:05:00,
2013-05-01 10:10:00,57.2,51.8,30.18,SSE,165,0.0,0.0,82,0.00,,---,0.00,VWS V14.01,2013-05-01 14:10:00,
2013-05-01 10:15:00,57.3,51.9,30.19,West,273,1.0,1.0,82,0.00,,---,0.00,VWS V14.01,2013-05-01 14:15:00,
2013-05-01 10:20:00,57.1,51.3,30.19,West,269,0.0,1.0,81,0.00,,---,0.00,VWS V14.01,2013-05-01 14:20:00,
2013-05-01 10:25:00,57.1,51.3,30.19,WSW,242,0.0,0.0,81,0.00,,---,0.00,VWS V14.01,2013-05-01 14:25:00,
2013-05-01 10:30:00,57.3,51.5,30.19,SSW,210,1.0,1.0,81,0.00,,---,0.00,VWS V14.01,2013-05-01 14:30:00,
2013-05-01 10:35:00,57.4,51.3,30.19,WSW,250,1.0,2.0,80,0.00,,---,0.00,VWS V14.01,2013-05-01 14:35:00,
2013-05-01 10:40:00,57.6,51.1,30.19,WSW,256,1.0,2.0,79,0.00,,---,0.00,VWS V14.01,2013-05-01 14:40:00,
2013-05-01 10:45:00,57.6,51.5,30.20,WNW,284,2.0,3.0,80,0.00,,---,0.00,VWS V14.01,2013-05-01 14:45:00,
2013-05-01 10:50:00,57.5,51.0,30.20,WNW,288,3.0,3.0,79,0.00,,---,0.00,VWS V14.01,2013-05-01 14:50:00,
2013-05-01 10:55:00,57.6,51.1,30.21,WNW,293,3.0,3.0,79,0.00,,---,0.00,VWS V14.01,2013-05-01 14:55:00,
2013-05-01 11:00:00,57.6,51.1,30.21,West,280,1.0,1.0,79,0.00,,---,0.00,VWS V14.01,2013-05-01 15:00:00,
2013-05-01 11:05:00,57.9,51.4,30.21,South,191,0.0,2.0,79,0.00,,---,0.00,VWS V14.01,2013-05-01 15:05:00,
2013-05-01 11:10:00,58.2,51.7,30.20,West,262,1.0,2.0,79,0.00,,---,0.00,VWS V14.01,2013-05-01 15:10:00,
2013-05-01 11:15:00,58.7,51.5,30.20,WNW,291,1.0,1.0,77,0.00,,---,0.00,VWS V14.01,2013-05-01 15:15:00,
2013-05-01 11:20:00,59.0,52.2,30.20,WSW,248,1.0,3.0,78,0.00,,---,0.00,VWS V14.01,2013-05-01 15:20:00,
2013-05-01 11:25:00,58.9,51.4,30.20,SW,217,0.0,0.0,76,0.00,,---,0.00,VWS V14.01,2013-05-01 15:25:00,
2013-05-01 11:30:00,58.9,51.4,30.19,NW,309,0.0,0.0,76,0.00,,---,0.00,VWS V14.01,2013-05-01 15:30:00,
2013-05-01 11:35:00,59.4,51.8,30.19,NNW,339,1.0,1.0,76,0.00,,---,0.00,VWS V14.01,2013-05-01 15:35:00,
2013-05-01 11:40:00,59.8,51.5,30.19,NE,44,0.0,0.0,74,0.00,,---,0.00,VWS V14.01,2013-05-01 15:40:00,
2013-05-01 11:45:00,60.4,52.5,30.19,West,273,1.0,2.0,75,0.00,,---,0.00,VWS V14.01,2013-05-01 15:45:00,
2013-05-01 11:50:00,60.9,51.8,30.19,NW,305,1.0,3.0,72,0.00,,---,0.00,VWS V14.01,2013-05-01 15:50:00,
2013-05-01 11:55:00,61.5,53.2,30.19,WNW,302,4.0,4.0,74,0.00,,---,0.00,VWS V14.01,2013-05-01 15:55:00,
2013-05-01 12:00:00,61.6,51.7,30.19,WSW,250,2.0,4.0,70,0.00,,---,0.00,VWS V14.01,2013-05-01 16:00:00,
2013-05-01 12:05:00,61.9,52.4,30.18,West,266,2.0,3.0,71,0.00,,---,0.00,VWS V14.01,2013-05-01 16:05:00,
2013-05-01 12:10:00,61.6,52.5,30.18,WNW,295,0.0,1.0,72,0.00,,---,0.00,VWS V14.01,2013-05-01 16:10:00,
2013-05-01 12:15:00,61.5,52.0,30.18,South,179,4.0,4.0,71,0.00,,---,0.00,VWS V14.01,2013-05-01 16:15:00,
2013-05-01 12:20:00,61.2,51.7,30.18,SSE,152,2.0,2.0,71,0.00,,---,0.00,VWS V14.01,2013-05-01 16:20:00,
2013-05-01 12:25:00,61.4,51.9,30.18,NNW,328,0.0,1.0,71,0.00,,---,0.00,VWS V14.01,2013-05-01 16:25:00,
2013-05-01 12:30:00,62.0,52.9,30.17,South,183,2.0,4.0,72,0.00,,---,0.00,VWS V14.01,2013-05-01 16:30:00,
2013-05-01 12:35:00,61.6,52.5,30.17,SSE,165,2.0,2.0,72,0.00,,---,0.00,VWS V14.01,2013-05-01 16:35:00,
2013-05-01 12:40:00,61.7,52.2,30.17,ESE,102,2.0,2.0,71,0.00,,---,0.00,VWS V14.01,2013-05-01 16:40:00,
2013-05-01 12:45:00,62.5,53.4,30.16,WNW,287,1.0,4.0,72,0.00,,---,0.00,VWS V14.01,2013-05-01 16:45:00,
2013-05-01 12:50:00,63.2,53.3,30.16,SSW,212,0.0,1.0,70,0.00,,---,0.00,VWS V14.01,2013-05-01 16:50:00,
2013-05-01 12:55:00,63.5,53.2,30.15,WSW,257,0.0,1.0,69,0.00,,---,0.00,VWS V14.01,2013-05-01 16:55:00,
2013-05-01 13:00:00,63.6,52.9,30.15,SSE,147,1.0,2.0,68,0.00,,---,0.00,VWS V14.01,2013-05-01 17:00:00,
2013-05-01 13:05:00,63.5,52.4,30.15,South,178,1.0,4.0,67,0.00,,---,0.00,VWS V14.01,2013-05-01 17:05:00,
2013-05-01 13:10:00,63.5,52.4,30.15,NE,44,2.0,2.0,67,0.00,,---,0.00,VWS V14.01,2013-05-01 17:10:00,
2013-05-01 13:15:00,63.7,52.5,30.15,South,187,1.0,1.0,67,0.00,,---,0.00,VWS V14.01,2013-05-01 17:15:00,
2013-05-01 13:20:00,63.4,53.1,30.15,SW,226,1.0,2.0,69,0.00,,---,0.00,VWS V14.01,2013-05-01 17:20:00,
2013-05-01 13:25:00,63.3,53.0,30.15,SE,142,2.0,3.0,69,0.00,,---,0.00,VWS V14.01,2013-05-01 17:25:00,
2013-05-01 13:30:00,63.9,53.5,30.14,SW,222,2.0,3.0,69,0.00,,---,0.00,VWS V14.01,2013-05-01 17:30:00,
2013-05-01 13:35:00,64.1,52.5,30.14,ESE,102,2.0,3.0,66,0.00,,---,0.00,VWS V14.01,2013-05-01 17:35:00,
2013-05-01 13:40:00,63.9,52.7,30.14,SSE,160,2.0,3.0,67,0.00,,---,0.00,VWS V14.01,2013-05-01 17:40:00,
2013-05-01 13:45:00,64.1,52.9,30.15,WSW,250,2.0,2.0,67,0.00,,---,0.00,VWS V14.01,2013-05-01 17:45:00,
2013-05-01 13:50:00,64.0,52.0,30.15,South,176,0.0,2.0,65,0.00,,---,0.00,VWS V14.01,2013-05-01 17:50:00,
2013-05-01 13:55:00,64.3,52.3,30.15,NNE,32,2.0,2.0,65,0.00,,---,0.00,VWS V14.01,2013-05-01 17:55:00,
2013-05-01 14:00:00,64.5,52.9,30.15,West,280,1.0,2.0,66,0.00,,---,0.00,VWS V14.01,2013-05-01 18:00:00,
2013-05-01 14:05:00,64.3,51.9,30.15,NE,44,1.0,1.0,64,0.00,,---,0.00,VWS V14.01,2013-05-01 18:05:00,
2013-05-01 14:10:00,64.7,53.1,30.15,SE,135,2.0,4.0,66,0.00,,---,0.00,VWS V14.01,2013-05-01 18:10:00,
2013-05-01 14:15:00,65.1,52.2,30.15,WSW,243,1.0,2.0,63,0.00,,---,0.00,VWS V14.01,2013-05-01 18:15:00,
2013-05-01 14:20:00,64.9,52.0,30.15,West,264,0.0,1.0,63,0.00,,---,0.00,VWS V14.01,2013-05-01 18:20:00,
2013-05-01 14:25:00,65.0,53.4,30.15,SW,232,2.0,2.0,66,0.00,,---,0.00,VWS V14.01,2013-05-01 18:25:00,
2013-05-01 14:30:00,64.9,52.0,30.15,West,267,1.0,2.0,63,0.00,,---,0.00,VWS V14.01,2013-05-01 18:30:00,
2013-05-01 14:35:00,64.7,51.4,30.15,WSW,249,2.0,3.0,62,0.00,,---,0.00,VWS V14.01,2013-05-01 18:35:00,
2013-05-01 14:40:00,64.8,51.0,30.15,WSW,245,1.0,4.0,61,0.00,,---,0.00,VWS V14.01,2013-05-01 18:40:00,
2013-05-01 14:45:00,65.3,52.0,30.16,SSW,204,0.0,4.0,62,0.00,,---,0.00,VWS V14.01,2013-05-01 18:45:00,
2013-05-01 14:50:00,65.4,52.1,30.15,WSW,246,2.0,2.0,62,0.00,,---,0.00,VWS V14.01,2013-05-01 18:50:00,
2013-05-01 14:55:00,65.2,51.4,30.15,WNW,302,2.0,4.0,61,0.00,,---,0.00,VWS V14.01,2013-05-01 18:55:00,
2013-05-01 15:00:00,64.9,50.7,30.15,SW,232,7.0,7.0,60,0.00,,---,0.00,VWS V14.01,2013-05-01 19:00:00,
2013-05-01 15:05:00,64.6,50.4,30.16,WNW,291,2.0,5.0,60,0.00,,---,0.00,VWS V14.01,2013-05-01 19:05:00,
2013-05-01 15:10:00,64.2,49.1,30.16,WNW,298,3.0,4.0,58,0.00,,---,0.00,VWS V14.01,2013-05-01 19:10:00,
2013-05-01 15:15:00,63.9,50.6,30.16,SW,218,3.0,3.0,62,0.00,,---,0.00,VWS V14.01,2013-05-01 19:15:00,
2013-05-01 15:20:00,64.0,50.3,30.16,WNW,288,0.0,1.0,61,0.00,,---,0.00,VWS V14.01,2013-05-01 19:20:00,
2013-05-01 15:25:00,63.9,49.8,30.16,SW,224,0.0,1.0,60,0.00,,---,0.00,VWS V14.01,2013-05-01 19:25:00,
2013-05-01 15:30:00,64.1,49.5,30.16,WNW,285,0.0,0.0,59,0.00,,---,0.00,VWS V14.01,2013-05-01 19:30:00,
2013-05-01 15:35:00,64.6,50.0,30.15,WNW,295,2.0,2.0,59,0.00,,---,0.00,VWS V14.01,2013-05-01 19:35:00,
2013-05-01 15:40:00,64.8,49.7,30.15,West,276,2.0,3.0,58,0.00,,---,0.00,VWS V14.01,2013-05-01 19:40:00,
2013-05-01 15:45:00,64.7,49.1,30.15,West,259,4.0,4.0,57,0.00,,---,0.00,VWS V14.01,2013-05-01 19:45:00,
2013-05-01 15:50:00,64.5,48.5,30.15,WNW,300,5.0,5.0,56,0.00,,---,0.00,VWS V14.01,2013-05-01 19:50:00,
2013-05-01 15:55:00,64.9,49.3,30.15,West,264,5.0,6.0,57,0.00,,---,0.00,VWS V14.01,2013-05-01 19:55:00,
2013-05-01 16:00:00,65.1,48.1,30.15,NW,305,3.0,8.0,54,0.00,,---,0.00,VWS V14.01,2013-05-01 20:00:00,
2013-05-01 16:05:00,65.2,48.2,30.15,WNW,288,5.0,6.0,54,0.00,,---,0.00,VWS V14.01,2013-05-01 20:05:00,
2013-05-01 16:10:00,65.4,48.8,30.15,West,270,5.0,5.0,55,0.00,,---,0.00,VWS V14.01,2013-05-01 20:10:00,
2013-05-01 16:15:00,65.3,48.7,30.15,WNW,288,7.0,7.0,55,0.00,,---,0.00,VWS V14.01,2013-05-01 20:15:00,
2013-05-01 16:20:00,65.1,48.5,30.15,WNW,293,4.0,4.0,55,0.00,,---,0.00,VWS V14.01,2013-05-01 20:20:00,
2013-05-01 16:25:00,65.1,48.5,30.15,West,270,3.0,7.0,55,0.00,,---,0.00,VWS V14.01,2013-05-01 20:25:00,
2013-05-01 16:30:00,65.1,49.0,30.15,WNW,295,4.0,4.0,56,0.00,,---,0.00,VWS V14.01,2013-05-01 20:30:00,
2013-05-01 16:35:00,64.9,48.4,30.15,WNW,295,5.0,8.0,55,0.00,,---,0.00,VWS V14.01,2013-05-01 20:35:00,
2013-05-01 16:40:00,64.6,48.6,30.15,West,271,4.0,5.0,56,0.00,,---,0.00,VWS V14.01,2013-05-01 20:40:00,
2013-05-01 16:45:00,64.7,49.1,30.14,West,260,3.0,8.0,57,0.00,,---,0.00,VWS V14.01,2013-05-01 20:45:00,
2013-05-01 16:50:00,64.9,48.8,30.14,West,266,4.0,8.0,56,0.00,,---,0.00,VWS V14.01,2013-05-01 20:50:00,
2013-05-01 16:55:00,64.7,49.1,30.15,WSW,257,4.0,5.0,57,0.00,,---,0.00,VWS V14.01,2013-05-01 20:55:00,
2013-05-01 17:00:00,64.6,48.6,30.15,West,273,4.0,4.0,56,0.00,,---,0.00,VWS V14.01,2013-05-01 21:00:00,
2013-05-01 17:05:00,64.4,48.4,30.15,NW,305,3.0,4.0,56,0.00,,---,0.00,VWS V14.01,2013-05-01 21:05:00,
2013-05-01 17:10:00,64.1,48.6,30.15,WNW,295,3.0,5.0,57,0.00,,---,0.00,VWS V14.01,2013-05-01 21:10:00,
2013-05-01 17:15:00,63.9,48.8,30.15,WNW,288,4.0,4.0,58,0.00,,---,0.00,VWS V14.01,2013-05-01 21:15:00,
2013-05-01 17:20:00,63.9,48.8,30.15,WNW,284,2.0,4.0,58,0.00,,---,0.00,VWS V14.01,2013-05-01 21:20:00,
2013-05-01 17:25:00,63.8,48.3,30.14,WSW,257,1.0,4.0,57,0.00,,---,0.00,VWS V14.01,2013-05-01 21:25:00,
2013-05-01 17:30:00,63.5,48.5,30.14,WNW,282,3.0,4.0,58,0.00,,---,0.00,VWS V14.01,2013-05-01 21:30:00,
2013-05-01 17:35:00,63.2,47.7,30.15,NW,313,2.0,4.0,57,0.00,,---,0.00,VWS V14.01,2013-05-01 21:35:00,
2013-05-01 17:40:00,63.0,48.5,30.15,WNW,290,4.0,4.0,59,0.00,,---,0.00,VWS V14.01,2013-05-01 21:40:00,
2013-05-01 17:45:00,63.0,48.5,30.14,West,276,2.0,4.0,59,0.00,,---,0.00,VWS V14.01,2013-05-01 21:45:00,
2013-05-01 17:50:00,62.8,48.3,30.14,WNW,292,4.0,5.0,59,0.00,,---,0.00,VWS V14.01,2013-05-01 21:50:00,
2013-05-01 17:55:00,62.7,48.6,30.14,WNW,302,4.0,4.0,60,0.00,,---,0.00,VWS V14.01,2013-05-01 21:55:00,
2013-05-01 18:00:00,62.5,48.4,30.14,WNW,294,2.0,4.0,60,0.00,,---,0.00,VWS V14.01,2013-05-01 22:00:00,
2013-05-01 18:05:00,62.3,47.8,30.15,West,280,2.0,5.0,59,0.00,,---,0.00,VWS V14.01,2013-05-01 22:05:00,
2013-05-01 18:10:00,62.0,48.0,30.15,WNW,295,5.0,6.0,60,0.00,,---,0.00,VWS V14.01,2013-05-01 22:10:00,
2013-05-01 18:15:00,61.9,48.8,30.15,West,269,2.0,3.0,62,0.00,,---,0.00,VWS V14.01,2013-05-01 22:15:00,
2013-05-01 18:20:00,61.8,48.7,30.15,West,266,4.0,4.0,62,0.00,,---,0.00,VWS V14.01,2013-05-01 22:20:00,
2013-05-01 18:25:00,61.6,48.5,30.16,West,277,1.0,3.0,62,0.00,,---,0.00,VWS V14.01,2013-05-01 22:25:00,
2013-05-01 18:30:00,61.5,49.2,30.15,WSW,250,3.0,4.0,64,0.00,,---,0.00,VWS V14.01,2013-05-01 22:30:00,
2013-05-01 18:35:00,61.4,48.7,30.16,West,277,5.0,5.0,63,0.00,,---,0.00,VWS V14.01,2013-05-01 22:35:00,
2013-05-01 18:40:00,61.3,49.0,30.16,West,276,2.0,2.0,64,0.00,,---,0.00,VWS V14.01,2013-05-01 22:40:00,
2013-05-01 18:45:00,61.2,48.9,30.16,WNW,292,2.0,3.0,64,0.00,,---,0.00,VWS V14.01,2013-05-01 22:45:00,
2013-05-01 18:50:00,61.1,48.8,30.16,WNW,295,2.0,3.0,64,0.00,,---,0.00,VWS V14.01,2013-05-01 22:50:00,
2013-05-01 18:55:00,60.9,48.7,30.15,SW,226,2.0,4.0,64,0.00,,---,0.00,VWS V14.01,2013-05-01 22:55:00,
2013-05-01 19:00:00,60.8,48.6,30.15,West,281,1.0,3.0,64,0.00,,---,0.00,VWS V14.01,2013-05-01 23:00:00,
2013-05-01 19:05:00,60.6,48.8,30.15,West,274,3.0,4.0,65,0.00,,---,0.00,VWS V14.01,2013-05-01 23:05:00,
2013-05-01 19:10:00,60.5,48.7,30.15,WNW,287,3.0,5.0,65,0.00,,---,0.00,VWS V14.01,2013-05-01 23:10:00,
2013-05-01 19:15:00,60.3,48.5,30.15,West,281,1.0,2.0,65,0.00,,---,0.00,VWS V14.01,2013-05-01 23:15:00,
2013-05-01 19:20:00,60.2,48.8,30.16,West,281,0.0,0.0,66,0.00,,---,0.00,VWS V14.01,2013-05-01 23:20:00,
2013-05-01 19:25:00,60.0,49.8,30.15,SW,229,0.0,1.0,69,0.00,,---,0.00,VWS V14.01,2013-05-01 23:25:00,
2013-05-01 19:30:00,59.9,48.9,30.16,WSW,252,0.0,0.0,67,0.00,,---,0.00,VWS V14.01,2013-05-01 23:30:00,
2013-05-01 19:35:00,59.9,48.5,30.16,West,277,2.0,3.0,66,0.00,,---,0.00,VWS V14.01,2013-05-01 23:35:00,
2013-05-01 19:40:00,59.8,48.8,30.16,West,273,1.0,4.0,67,0.00,,---,0.00,VWS V14.01,2013-05-01 23:40:00,
2013-05-01 19:45:00,59.8,49.2,30.16,SSW,208,1.0,1.0,68,0.00,,---,0.00,VWS V14.01,2013-05-01 23:45:00,
2013-05-01 19:50:00,59.7,49.1,30.16,West,269,1.0,2.0,68,0.00,,---,0.00,VWS V14.01,2013-05-01 23:50:00,
2013-05-01 19:55:00,59.4,49.6,30.16,South,186,2.0,9.0,70,0.00,,---,0.00,VWS V14.01,2013-05-01 23:55:00,
2013-05-01 20:00:00,59.3,49.1,30.16,WSW,250,2.0,4.0,69,0.00,,---,0.00,VWS V14.01,2013-05-02 00:00:00,
2013-05-01 20:05:00,59.3,49.1,30.16,West,281,0.0,1.0,69,0.00,,---,0.00,VWS V14.01,2013-05-02 00:05:00,
2013-05-01 20:10:00,59.2,49.0,30.16,WSW,245,1.0,1.0,69,0.00,,---,0.00,VWS V14.01,2013-05-02 00:10:00,
2013-05-01 20:15:00,59.1,49.0,30.16,SW,214,0.0,0.0,69,0.00,,---,0.00,VWS V14.01,2013-05-02 00:15:00,
2013-05-01 20:20:00,59.0,49.6,30.16,SW,215,0.0,0.0,71,0.00,,---,0.00,VWS V14.01,2013-05-02 00:20:00,
2013-05-01 20:25:00,58.8,49.4,30.16,WNW,282,2.0,2.0,71,0.00,,---,0.00,VWS V14.01,2013-05-02 00:25:00,
2013-05-01 20:30:00,58.6,49.6,30.16,West,271,0.0,1.0,72,0.00,,---,0.00,VWS V14.01,2013-05-02 00:30:00,
2013-05-01 20:35:00,58.5,49.9,30.16,West,266,0.0,0.0,73,0.00,,---,0.00,VWS V14.01,2013-05-02 00:35:00,
2013-05-01 20:40:00,58.3,49.7,30.17,SW,229,0.0,0.0,73,0.00,,---,0.00,VWS V14.01,2013-05-02 00:40:00,
2013-05-01 20:45:00,58.2,50.0,30.17,WNW,290,2.0,2.0,74,0.00,,---,0.00,VWS V14.01,2013-05-02 00:45:00,
2013-05-01 20:50:00,58.0,49.8,30.17,WNW,283,1.0,2.0,74,0.00,,---,0.00,VWS V14.01,2013-05-02 00:50:00,
2013-05-01 20:55:00,57.9,50.0,30.17,WNW,283,0.0,0.0,75,0.00,,---,0.00,VWS V14.01,2013-05-02 00:55:00,
2013-05-01 21:00:00,57.8,50.3,30.17,WNW,283,0.0,0.0,76,0.00,,---,0.00,VWS V14.01,2013-05-02 01:00:00,
2013-05-01 21:05:00,57.7,50.2,30.17,WNW,283,0.0,0.0,76,0.00,,---,0.00,VWS V14.01,2013-05-02 01:05:00,
2013-05-01 21:10:00,57.6,50.1,30.17,WNW,283,0.0,1.0,76,0.00,,---,0.00,VWS V14.01,2013-05-02 01:10:00,
2013-05-01 21:15:00,57.5,50.4,30.17,WNW,287,0.0,1.0,77,0.00,,---,0.00,VWS V14.01,2013-05-02 01:15:00,
2013-05-01 21:20:00,57.3,50.2,30.17,WNW,292,0.0,0.0,77,0.00,,---,0.00,VWS V14.01,2013-05-02 01:20:00,
2013-05-01 21:25:00,57.2,50.1,30.17,NW,309,0.0,0.0,77,0.00,,---,0.00,VWS V14.01,2013-05-02 01:25:00,
2013-05-01 21:30:00,57.2,50.4,30.18,SSW,207,0.0,0.0,78,0.00,,---,0.00,VWS V14.01,2013-05-02 01:30:00,
2013-05-01 21:35:00,57.1,50.0,30.18,SSW,205,0.0,0.0,77,0.00,,---,0.00,VWS V14.01,2013-05-02 01:35:00,
2013-05-01 21:40:00,57.1,50.3,30.18,WSW,245,0.0,0.0,78,0.00,,---,0.00,VWS V14.01,2013-05-02 01:40:00,
2013-05-01 21:45:00,57.0,50.2,30.18,WNW,292,0.0,0.0,78,0.00,,---,0.00,VWS V14.01,2013-05-02 01:45:00,
2013-05-01 21:50:00,57.0,49.9,30.18,WNW,293,0.0,0.0,77,0.00,,---,0.00,VWS V14.01,2013-05-02 01:50:00,
2013-05-01 21:55:00,56.9,49.8,30.18,WNW,293,0.0,0.0,77,0.00,,---,0.00,VWS V14.01,2013-05-02 01:55:00,
2013-05-01 22:00:00,56.8,49.7,30.19,WNW,293,0.0,0.0,77,0.00,,---,0.00,VWS V14.01,2013-05-02 02:00:00,
2013-05-01 22:05:00,56.8,49.7,30.19,WNW,293,0.0,0.0,77,0.00,,---,0.00,VWS V14.01,2013-05-02 02:05:00,
2013-05-01 22:10:00,56.7,49.9,30.19,WNW,293,0.0,0.0,78,0.00,,---,0.00,VWS V14.01,2013-05-02 02:10:00,
2013-05-01 22:15:00,56.6,49.8,30.19,WNW,293,0.0,0.0,78,0.00,,---,0.00,VWS V14.01,2013-05-02 02:15:00,
2013-05-01 22:20:00,56.5,50.1,30.19,WNW,292,0.0,0.0,79,0.00,,---,0.00,VWS V14.01,2013-05-02 02:20:00,
2013-05-01 22:25:00,56.4,50.3,30.19,WNW,293,0.0,1.0,80,0.00,,---,0.00,VWS V14.01,2013-05-02 02:25:00,
2013-05-01 22:30:00,56.4,50.0,30.19,WNW,293,0.0,0.0,79,0.00,,---,0.00,VWS V14.01,2013-05-02 02:30:00,
2013-05-01 22:35:00,56.3,49.9,30.19,WNW,292,0.0,0.0,79,0.00,,---,0.00,VWS V14.01,2013-05-02 02:35:00,
2013-05-01 22:40:00,56.3,49.9,30.20,WNW,293,0.0,0.0,79,0.00,,---,0.00,VWS V14.01,2013-05-02 02:40:00,
2013-05-01 22:45:00,56.3,50.2,30.20,WNW,292,0.0,0.0,80,0.00,,---,0.00,VWS V14.01,2013-05-02 02:45:00,
2013-05-01 22:50:00,56.2,49.8,30.20,WNW,282,3.0,3.0,79,0.00,,---,0.00,VWS V14.01,2013-05-02 02:50:00,
2013-05-01 22:55:00,56.3,50.2,30.20,WNW,295,0.0,1.0,80,0.00,,---,0.00,VWS V14.01,2013-05-02 02:55:00,
2013-05-01 23:00:00,56.2,50.1,30.20,WNW,293,0.0,0.0,80,0.00,,---,0.00,VWS V14.01,2013-05-02 03:00:00,
2013-05-01 23:05:00,56.2,50.1,30.20,WNW,294,0.0,0.0,80,0.00,,---,0.00,VWS V14.01,2013-05-02 03:05:00,
2013-05-01 23:10:00,56.1,50.4,30.20,NNW,337,0.0,0.0,81,0.00,,---,0.00,VWS V14.01,2013-05-02 03:10:00,
2013-05-01 23:15:00,56.1,50.0,30.20,NNW,336,0.0,0.0,80,0.00,,---,0.00,VWS V14.01,2013-05-02 03:15:00,
2013-05-01 23:20:00,56.1,50.4,30.20,WNW,288,0.0,1.0,81,0.00,,---,0.00,VWS V14.01,2013-05-02 03:20:00,
2013-05-01 23:25:00,56.2,50.5,30.19,WNW,288,0.0,1.0,81,0.00,,---,0.00,VWS V14.01,2013-05-02 03:25:00,
2013-05-01 23:30:00,56.1,50.7,30.19,West,278,3.0,7.0,82,0.00,,---,0.00,VWS V14.01,2013-05-02 03:30:00,
2013-05-01 23:35:00,56.1,50.7,30.20,WNW,291,0.0,0.0,82,0.00,,---,0.00,VWS V14.01,2013-05-02 03:35:00,
2013-05-01 23:40:00,56.0,50.3,30.20,WNW,291,0.0,0.0,81,0.00,,---,0.00,VWS V14.01,2013-05-02 03:40:00,
2013-05-01 23:45:00,56.0,49.6,30.20,WNW,292,0.0,0.0,79,0.00,,---,0.00,VWS V14.01,2013-05-02 03:45:00,
2013-05-01 23:50:00,56.1,49.3,30.19,WNW,293,0.0,0.0,78,0.00,,---,0.00,VWS V14.01,2013-05-02 03:50:00,
2013-05-01 23:55:00,56.2,49.8,30.19,WNW,292,0.0,0.0,79,0.00,,---,0.00,VWS V14.01,2013-05-02 03:55:00,